Hourly Data Report for October 28, 2003

SHERBROOKE A
QUEBEC

45°26'00.000" N
71°41'00.000" W
241.40 m
7028124
71610
YSC

Download Data

Hourly Data (October 2003)
Hourly Data Report for October 28, 2003
TIME
LST
Temp Definition
°C
Dew Point Definition
°C
Rel Hum Definition
%
Precip. Amount Definition
mm

Wind Dir Definition
10's deg

Wind Spd Definition
km/h
Visibility Definition
km
Stn Press Definition
kPa
Hmdx Definition


Wind Chill Definition


Weather Definition


00:00 4.1 3.5 96   26 19 15.0 97.36     Rain
01:00 4.4 3.7 95   24 7 15.0 97.55      
02:00 4.8 4.1 95   25 11 15.0 97.68     Drizzle
03:00 4.8 3.8 93   25 19 15.0 97.81      
04:00 4.5 3.5 93   24 11 15.0 97.89      
05:00 4.4 3.4 93   24 15 15.0 97.96      
06:00 4.7 3.8 94   18 4 15.0 98.04      
07:00 4.9 4.1 95   21 6 15.0 98.17     Drizzle
08:00 5.3 4.4 94   15 6 19.3 98.26     Drizzle
09:00 6.2 4.9 91   21 6 24.1 98.39     Cloudy
10:00 6.7 5.0 89   23 4 24.1 98.44     Cloudy
11:00 9.0 5.2 77   22 9 24.1 98.48     Mostly Cloudy
12:00 9.8 3.5 65   23 15 24.1 98.50     Mostly Cloudy
13:00 9.0 2.6 64   22 7 24.1 98.48     Mostly Cloudy
14:00 9.6 2.7 62   27 13 24.1 98.50     Mostly Cloudy
15:00 9.1 2.0 61   30 7 24.1 98.55     Mostly Cloudy
16:00 7.9 1.9 66     0 24.1 98.53     Mostly Cloudy
17:00 3.7 1.5 86   5 6 24.1 98.53     Mostly Cloudy
18:00 4.2 1.9 85   9 9 15.0 98.55      
19:00 3.2 2.0 92   7 9 15.0 98.58      
20:00 3.1 1.8 91   9 13 15.0 98.59      
21:00 2.7 1.5 92   9 9 15.0 98.60      
22:00 2.1 1.1 93   8 7 12.9 98.60      
23:00 1.8 0.9 94   7 7 11.3 98.58      

Notes on Data Quality.

Legend

  • E = Estimated
  • M = Missing
  • NA = Not Available*
  • [empty] = Indicates an unobserved value
Date modified: